This is the latest recevied weather packets stored in our database for station/object IR3AS. If no packets are shown the sender has not sent any weather packets the latest 1 day(s).
| Time | Temp. | Humidity | Pressure | Rain* | Wind** | Luminosity | Snow |
|---|---|---|---|---|---|---|---|
| 1777934752 | 3.89° C | 89% | 857.5 hPa | 0 mm | 0.89 m/s, 315° | - | - |
| 1777934452 | 3.33° C | 90% | 856.7 hPa | 0 mm | 0 m/s | - | - |
| 1777934152 | 3.33° C | 90% | 857.1 hPa | 0 mm | 0 m/s | - | - |
| 1777933852 | 3.33° C | 91% | 857.3 hPa | 0 mm | 0.45 m/s, 315° | - | - |
| 1777933552 | 3.33° C | 91% | 856.8 hPa | 0 mm | 0 m/s | - | - |
| 1777933252 | 3.89° C | 91% | 856.8 hPa | 0 mm | 0 m/s | - | - |
| 1777932952 | 3.89° C | 91% | 857.2 hPa | 0 mm | 0 m/s | - | - |
| 1777932652 | 3.89° C | 91% | 857.4 hPa | 0 mm | 0.89 m/s, 315° | - | - |
| 1777932352 | 3.89° C | 91% | 857.2 hPa | 0 mm | 0.89 m/s, 315° | - | - |
| 1777932052 | 3.89° C | 91% | 857.4 hPa | 0 mm | 0.45 m/s, 337° | - | - |
| 1777931752 | 3.89° C | 91% | 857.2 hPa | 0 mm | 1.34 m/s, 315° | - | - |
| 1777931452 | 3.89° C | 91% | 857.4 hPa | 0 mm | 0 m/s | - | - |
| 1777931152 | 3.89° C | 90% | 857.6 hPa | 0 mm | 1.34 m/s, 292° | - | - |
| 1777930852 | 3.89° C | 90% | 857.7 hPa | 0 mm | 0.89 m/s, 292° | - | - |
| 1777930552 | 3.89° C | 90% | 858.1 hPa | 0 mm | 0.89 m/s, 292° | - | - |
| 1777930252 | 3.89° C | 90% | 858.2 hPa | 0 mm | 0.89 m/s, 292° | - | - |
| 1777929952 | 3.89° C | 90% | 858 hPa | 0 mm | 1.34 m/s, 315° | - | - |
| 1777929652 | 4.44° C | 90% | 857.7 hPa | 0 mm | 1.34 m/s, 315° | - | - |
| 1777929352 | 4.44° C | 90% | 858.1 hPa | 0 mm | 0.89 m/s, 292° | - | - |
| 1777929052 | 4.44° C | 90% | 858.2 hPa | 0 mm | 1.34 m/s, 292° | - | - |
| 1777928752 | 3.89° C | 89% | 858.2 hPa | 0 mm | 1.34 m/s, 292° | - | - |
| 1777928452 | 3.89° C | 89% | 858.4 hPa | 0 mm | 1.34 m/s, 292° | - | - |
| 1777928152 | 3.89° C | 90% | 858.2 hPa | 0 mm | 0.89 m/s, 315° | - | - |
| 1777927852 | 3.89° C | 90% | 858.3 hPa | 0 mm | 1.34 m/s, 315° | - | - |
| 1777927552 | 4.44° C | 90% | 858.2 hPa | 0 mm | 1.34 m/s, 292° | - | - |
* Rain latest hour (hover to see other rain measurements)
** Current wind speed in m/s (hover to see current wind gust speed)